TimeEDT,TemperatureF,Dew PointF,Humidity,Sea Level PressureIn,VisibilityMPH,Wind Direction,Wind SpeedMPH,Gust SpeedMPH,PrecipitationIn,Events,Conditions,WindDirDegrees,DateUTC
12:56 AM,62.1,61.0,96,29.92,10.0,Calm,Calm,-,N/A,,Clear,0,2012-08-20 04:56:00
1:56 AM,63.0,61.0,93,29.92,10.0,Calm,Calm,-,N/A,,Clear,0,2012-08-20 05:56:00
2:56 AM,63.0,61.0,93,29.92,10.0,Calm,Calm,-,N/A,,Clear,0,2012-08-20 06:56:00
3:56 AM,62.1,60.1,93,29.91,10.0,Calm,Calm,-,N/A,,Clear,0,2012-08-20 07:56:00
4:56 AM,61.0,60.1,97,29.89,10.0,Calm,Calm,-,N/A,,Clear,0,2012-08-20 08:56:00
5:56 AM,61.0,60.1,97,29.90,10.0,Calm,Calm,-,N/A,,Clear,0,2012-08-20 09:56:00
6:56 AM,62.1,60.1,93,29.90,10.0,Calm,Calm,-,N/A,,Clear,0,2012-08-20 10:56:00
7:56 AM,64.0,62.1,93,29.91,10.0,Calm,Calm,-,N/A,,Clear,0,2012-08-20 11:56:00
8:56 AM,66.0,64.0,93,29.91,10.0,Calm,Calm,-,N/A,,Clear,0,2012-08-20 12:56:00
9:56 AM,69.1,64.9,87,29.91,10.0,NNE,3.5,-,N/A,,Partly Cloudy,30,2012-08-20 13:56:00
10:56 AM,72.0,63.0,73,29.90,10.0,Calm,Calm,-,N/A,,Partly Cloudy,0,2012-08-20 14:56:00
11:56 AM,73.9,62.1,66,29.89,10.0,South,5.8,-,N/A,,Scattered Clouds,180,2012-08-20 15:56:00
12:56 PM,73.9,64.0,71,29.89,10.0,SSW,9.2,-,N/A,,Partly Cloudy,210,2012-08-20 16:56:00
1:56 PM,71.1,61.0,70,29.88,10.0,SSW,6.9,-,N/A,,Clear,200,2012-08-20 17:56:00
2:56 PM,72.0,61.0,68,29.88,10.0,South,5.8,-,N/A,,Clear,180,2012-08-20 18:56:00
3:56 PM,71.1,61.0,70,29.88,10.0,SSW,8.1,-,N/A,,Clear,210,2012-08-20 19:56:00
4:56 PM,71.1,61.0,70,29.86,10.0,South,4.6,-,N/A,,Clear,180,2012-08-20 20:56:00
5:56 PM,70.0,62.1,76,29.86,10.0,South,4.6,-,N/A,,Mostly Cloudy,180,2012-08-20 21:56:00
6:56 PM,70.0,62.1,76,29.88,10.0,SSW,4.6,-,N/A,,Clear,200,2012-08-20 22:56:00
7:56 PM,68.0,62.1,81,29.89,10.0,SSW,4.6,-,N/A,,Clear,210,2012-08-20 23:56:00
8:56 PM,66.0,61.0,84,29.90,10.0,Calm,Calm,-,N/A,,Clear,0,2012-08-21 00:56:00
9:56 PM,64.0,61.0,90,29.90,10.0,Calm,Calm,-,N/A,,Clear,0,2012-08-21 01:56:00
10:56 PM,63.0,61.0,93,29.91,10.0,Calm,Calm,-,N/A,,Clear,0,2012-08-21 02:56:00
11:56 PM,62.1,60.1,93,29.91,10.0,Calm,Calm,-,N/A,,Clear,0,2012-08-21 03:56:00